Torna al catalogo

THORAD AGENA D DEB

AttivoLEO
NORAD 42518·DEBRIS·🇺🇸 United States

Lanciato Apr 8, 1970 da Vandenberg Space Force Base

Loading…

Prossimi Passaggi (prossime 24 ore)

TLE

AggiornatoSource: Space-Track

Epoca: Sep 13, 2026, 10:46 UTC

1 42518U 70025RY  26256.44887820  .00005850  00000-0  36913-2 0  9998
2 42518 100.4541 328.8174 0056215 260.2548  99.2262 14.03844246305718

Traccia THORAD AGENA D DEB in tempo reale con AllMySat

Download on the App Store